GFSMA_prec_precacc12_207.txt.gz
Total_Precipitation_Accumulation
0.00 0.00 0.01 0.01 0.00 0.00 0.00 0.00 0.00 0.00 0.00 0.00 0.00 0.00 0.00 0.00 0.00 0.00 0.00 0.00 0.00 0.01 0.00 0.00 0.00 0.01 0.02 0.02 0.01 0.01 0.00 0.01 0.00 0.00 0.00 0.00 0.00 0.00 0.00 0.00 0.01 0.01 0.01
0.01 0.00 0.01 0.01 0.00 0.00 0.00 0.00 0.00 0.00 0.00 0.00 0.00 0.00 0.00 0.00 0.00 0.00 0.00 0.00 0.00 0.01 0.01 0.01 0.01 0.02 0.02 0.01 0.01 0.01 0.01 0.01 0.02 0.01 0.01 0.01 0.01 0.01 0.01 0.01 0.01 0.01 0.01
0.00 0.01 0.01 0.01 0.00 0.00 0.00 0.00 0.00 0.00 0.00 0.00 0.00 0.00 0.00 0.00 0.00 0.00 0.00 0.00 0.00 0.01 0.01 0.01 0.01 0.02 0.03 0.02 0.01 0.01 0.01 0.01 0.02 0.02 0.01 0.01 0.02 0.02 0.02 0.02 0.01 0.01 0.01
0.00 0.01 0.00 0.00 0.00 0.00 0.00 0.00 0.00 0.00 0.00 0.00 0.00 0.00 0.00 0.00 0.00 0.00 0.00 0.00 0.00 0.00 0.01 0.01 0.01 0.02 0.02 0.02 0.02 0.02 0.02 0.02 0.02 0.02 0.02 0.02 0.02 0.02 0.01 0.01 0.01 0.01 0.01
0.05 0.04 0.03 0.02 0.02 0.02 0.01 0.00 0.00 0.00 0.00 0.00 0.00 0.00 0.00 0.00 0.00 0.00 0.00 0.00 0.00 0.00 0.00 0.00 0.01 0.02 0.02 0.02 0.03 0.04 0.03 0.03 0.03 0.02 0.02 0.02 0.01 0.01 0.01 0.01 0.01 0.01 0.01
0.15 0.16 0.13 0.10 0.09 0.09 0.07 0.07 0.06 0.06 0.04 0.02 0.01 0.01 0.01 0.01 0.00 0.00 0.00 0.00 0.00 0.00 0.00 0.00 0.00 0.01 0.02 0.03 0.03 0.04 0.04 0.04 0.03 0.03 0.03 0.02 0.02 0.02 0.02 0.02 0.01 0.01 0.01
0.17 0.19 0.19 0.11 0.07 0.07 0.09 0.11 0.11 0.11 0.09 0.07 0.08 0.05 0.03 0.02 0.01 0.00 0.00 0.00 0.00 0.00 0.00 0.00 0.00 0.00 0.00 0.02 0.03 0.04 0.05 0.05 0.04 0.03 0.03 0.03 0.02 0.02 0.02 0.01 0.01 0.01 0.01
0.16 0.15 0.18 0.19 0.19 0.14 0.13 0.12 0.13 0.14 0.12 0.09 0.14 0.18 0.16 0.11 0.07 0.03 0.02 0.02 0.01 0.01 0.01 0.01 0.01 0.01 0.00 0.00 0.01 0.03 0.04 0.05 0.04 0.04 0.03 0.02 0.02 0.01 0.01 0.00 0.00 0.01 0.01
0.14 0.17 0.20 0.22 0.23 0.23 0.19 0.14 0.14 0.18 0.23 0.20 0.17 0.30 0.38 0.28 0.15 0.11 0.11 0.10 0.11 0.10 0.08 0.07 0.06 0.05 0.00 0.00 0.00 0.01 0.02 0.03 0.03 0.03 0.02 0.01 0.01 0.00 0.00 0.00 0.00 0.00 0.00
0.04 0.04 0.08 0.12 0.16 0.19 0.18 0.18 0.15 0.11 0.16 0.27 0.24 0.21 0.26 0.33 0.30 0.25 0.19 0.16 0.14 0.13 0.11 0.09 0.07 0.07 0.07 0.03 0.01 0.00 0.00 0.01 0.02 0.02 0.01 0.00 0.00 0.00 0.00 0.00 0.00 0.00 0.00
0.02 0.04 0.07 0.11 0.17 0.24 0.22 0.23 0.22 0.22 0.24 0.28 0.27 0.20 0.22 0.34 0.38 0.29 0.25 0.22 0.25 0.22 0.19 0.16 0.16 0.17 0.16 0.13 0.09 0.05 0.01 0.00 0.00 0.01 0.01 0.01 0.00 0.00 0.00 0.00 0.00 0.00 0.00
0.00 0.00 0.01 0.03 0.07 0.14 0.19 0.27 0.31 0.35 0.37 0.38 0.35 0.28 0.37 0.39 0.38 0.36 0.40 0.39 0.38 0.42 0.45 0.43 0.35 0.26 0.23 0.21 0.19 0.19 0.10 0.02 0.00 0.00 0.01 0.01 0.00 0.00 0.00 0.00 0.00 0.00 0.00
0.00 0.00 0.00 0.00 0.02 0.04 0.07 0.12 0.20 0.22 0.27 0.40 0.43 0.36 0.34 0.32 0.29 0.39 0.45 0.51 0.51 0.58 0.60 0.57 0.48 0.38 0.33 0.32 0.30 0.26 0.17 0.09 0.02 0.00 0.00 0.00 0.00 0.00 0.00 0.00 0.00 0.00 0.00
0.00 0.00 0.00 0.00 0.00 0.01 0.02 0.10 0.17 0.18 0.18 0.23 0.29 0.26 0.26 0.28 0.33 0.42 0.41 0.47 0.56 0.61 0.50 0.41 0.33 0.26 0.27 0.30 0.30 0.31 0.22 0.14 0.09 0.06 0.01 0.01 0.00 0.00 0.00 0.00 0.00 0.00 0.00
0.00 0.00 0.00 0.00 0.01 0.01 0.02 0.04 0.12 0.14 0.17 0.19 0.25 0.27 0.25 0.19 0.24 0.33 0.38 0.37 0.39 0.57 0.57 0.43 0.34 0.31 0.33 0.45 0.45 0.30 0.17 0.14 0.10 0.07 0.04 0.02 0.02 0.01 0.00 0.00 0.00 0.00 0.00
0.00 0.00 0.00 0.00 0.01 0.01 0.02 0.03 0.07 0.09 0.14 0.17 0.19 0.23 0.28 0.25 0.22 0.25 0.33 0.36 0.35 0.39 0.47 0.36 0.31 0.32 0.43 0.58 0.57 0.42 0.26 0.23 0.16 0.06 0.02 0.01 0.00 0.00 0.00 0.00 0.00 0.00 0.00
0.00 0.00 0.00 0.00 0.00 0.01 0.02 0.03 0.06 0.21 0.24 0.20 0.22 0.22 0.27 0.26 0.29 0.26 0.27 0.29 0.29 0.34 0.48 0.45 0.28 0.27 0.47 0.68 0.73 0.46 0.29 0.29 0.23 0.13 0.10 0.04 0.01 0.00 0.00 0.00 0.00 0.00 0.00
0.00 0.00 0.00 0.01 0.01 0.01 0.03 0.07 0.09 0.21 0.28 0.30 0.29 0.22 0.23 0.31 0.34 0.32 0.36 0.38 0.34 0.30 0.34 0.45 0.36 0.30 0.42 0.57 0.61 0.45 0.36 0.23 0.18 0.15 0.10 0.06 0.03 0.02 0.00 0.00 0.00 0.00 0.00
0.00 0.00 0.00 0.00 0.00 0.03 0.07 0.13 0.18 0.30 0.36 0.30 0.30 0.34 0.31 0.28 0.35 0.46 0.39 0.31 0.37 0.46 0.52 0.44 0.35 0.40 0.56 0.60 0.69 0.65 0.49 0.29 0.19 0.18 0.14 0.08 0.04 0.02 0.00 0.00 0.00 0.00 0.00
0.00 0.00 0.00 0.00 0.02 0.06 0.09 0.18 0.33 0.47 0.62 0.60 0.50 0.37 0.38 0.41 0.33 0.28 0.39 0.45 0.36 0.42 0.53 0.61 0.46 0.46 0.58 0.74 0.63 0.61 0.60 0.44 0.31 0.20 0.14 0.10 0.05 0.02 0.00 0.00 0.00 0.00 0.00
0.00 0.00 0.01 0.02 0.06 0.13 0.18 0.24 0.40 0.48 0.53 0.67 0.73 0.71 0.67 0.64 0.62 0.51 0.43 0.45 0.59 0.68 0.62 0.54 0.62 0.61 0.64 0.78 0.78 0.56 0.34 0.38 0.37 0.20 0.14 0.09 0.04 0.02 0.01 0.00 0.00 0.00 0.00
0.02 0.02 0.03 0.08 0.14 0.14 0.27 0.28 0.34 0.41 0.55 0.49 0.58 0.68 0.80 0.96 0.85 0.79 0.73 0.62 0.57 0.63 0.60 0.46 0.46 0.50 0.52 0.44 0.38 0.35 0.38 0.39 0.43 0.30 0.16 0.16 0.06 0.04 0.02 0.00 0.00 0.00 0.00
0.04 0.04 0.05 0.07 0.09 0.13 0.25 0.29 0.27 0.28 0.34 0.48 0.53 0.60 0.77 0.86 0.92 0.91 0.96 0.86 0.65 0.61 0.50 0.45 0.41 0.33 0.37 0.45 0.42 0.44 0.31 0.17 0.12 0.16 0.15 0.19 0.10 0.06 0.03 0.01 0.00 0.00 0.00
0.05 0.06 0.05 0.07 0.07 0.13 0.18 0.25 0.36 0.28 0.30 0.46 0.51 0.44 0.46 0.61 0.67 0.76 0.86 0.99 0.83 0.64 0.64 0.53 0.49 0.47 0.37 0.37 0.31 0.25 0.26 0.30 0.25 0.25 0.17 0.18 0.12 0.05 0.01 0.00 0.00 0.00 0.00
0.03 0.05 0.05 0.07 0.09 0.13 0.16 0.17 0.22 0.35 0.32 0.39 0.39 0.35 0.41 0.44 0.46 0.49 0.55 0.70 0.75 0.73 0.70 0.62 0.58 0.60 0.59 0.53 0.56 0.62 0.63 0.37 0.30 0.31 0.16 0.10 0.10 0.04 0.02 0.01 0.00 0.00 0.00
0.09 0.05 0.06 0.07 0.10 0.13 0.16 0.17 0.20 0.23 0.32 0.32 0.40 0.40 0.52 0.47 0.42 0.43 0.42 0.44 0.51 0.62 0.66 0.74 0.67 0.65 0.65 0.53 0.33 0.14 0.13 0.09 0.10 0.16 0.10 0.07 0.08 0.04 0.03 0.01 0.00 0.00 0.00

GFSMA_prec_precacc12_210.txt.gz
Total_Precipitation_Accumulation
0.01 0.02 0.02 0.02 0.02 0.01 0.00 0.00 0.00 0.00 0.00 0.00 0.00 0.00 0.00 0.00 0.00 0.00 0.00 0.00 0.00 0.00 0.00 0.00 0.01 0.01 0.02 0.02 0.01 0.01 0.01 0.00 0.00 0.00 0.00 0.00 0.00 0.01 0.01 0.00 0.01 0.01 0.01
0.01 0.00 0.02 0.02 0.02 0.01 0.01 0.00 0.00 0.00 0.00 0.00 0.00 0.00 0.00 0.00 0.00 0.00 0.00 0.00 0.00 0.00 0.00 0.00 0.00 0.02 0.02 0.01 0.01 0.00 0.00 0.01 0.01 0.01 0.00 0.01 0.01 0.01 0.01 0.01 0.01 0.01 0.01
0.00 0.02 0.02 0.01 0.01 0.01 0.01 0.01 0.00 0.00 0.00 0.00 0.00 0.00 0.00 0.00 0.00 0.00 0.00 0.00 0.00 0.00 0.00 0.00 0.00 0.01 0.02 0.02 0.01 0.01 0.01 0.01 0.02 0.01 0.01 0.01 0.01 0.01 0.01 0.01 0.01 0.01 0.01
0.00 0.01 0.01 0.02 0.01 0.00 0.01 0.00 0.00 0.00 0.00 0.00 0.00 0.00 0.00 0.00 0.00 0.00 0.00 0.00 0.00 0.00 0.00 0.01 0.01 0.01 0.01 0.02 0.02 0.01 0.01 0.02 0.02 0.02 0.02 0.02 0.01 0.01 0.01 0.01 0.01 0.01 0.01
0.04 0.04 0.03 0.03 0.03 0.02 0.01 0.01 0.01 0.01 0.00 0.00 0.00 0.00 0.00 0.00 0.00 0.00 0.00 0.00 0.00 0.00 0.00 0.00 0.01 0.02 0.02 0.02 0.02 0.02 0.02 0.02 0.02 0.02 0.02 0.02 0.01 0.01 0.01 0.01 0.01 0.01 0.01
0.12 0.15 0.12 0.11 0.10 0.09 0.07 0.07 0.06 0.05 0.04 0.02 0.01 0.01 0.01 0.01 0.00 0.00 0.00 0.00 0.00 0.00 0.00 0.00 0.00 0.01 0.02 0.02 0.02 0.03 0.03 0.03 0.03 0.03 0.03 0.02 0.02 0.02 0.02 0.01 0.01 0.01 0.01
0.08 0.13 0.14 0.09 0.06 0.06 0.08 0.11 0.11 0.11 0.09 0.07 0.08 0.05 0.03 0.02 0.01 0.01 0.00 0.00 0.00 0.00 0.00 0.00 0.00 0.00 0.01 0.02 0.03 0.03 0.04 0.05 0.04 0.04 0.03 0.03 0.02 0.02 0.02 0.01 0.01 0.01 0.01
0.02 0.05 0.09 0.13 0.12 0.10 0.10 0.10 0.12 0.13 0.12 0.09 0.14 0.18 0.16 0.11 0.07 0.04 0.02 0.02 0.02 0.02 0.03 0.02 0.02 0.02 0.02 0.01 0.01 0.03 0.05 0.05 0.05 0.04 0.03 0.03 0.02 0.02 0.01 0.00 0.00 0.01 0.01
0.01 0.02 0.04 0.10 0.15 0.17 0.15 0.12 0.13 0.17 0.23 0.19 0.17 0.30 0.37 0.28 0.16 0.11 0.11 0.10 0.11 0.13 0.11 0.11 0.11 0.12 0.10 0.07 0.05 0.06 0.06 0.05 0.05 0.04 0.04 0.02 0.02 0.01 0.00 0.00 0.00 0.00 0.00
0.00 0.00 0.00 0.02 0.05 0.09 0.11 0.13 0.11 0.10 0.15 0.25 0.24 0.21 0.26 0.33 0.30 0.25 0.19 0.16 0.14 0.13 0.11 0.10 0.10 0.12 0.13 0.11 0.11 0.12 0.10 0.06 0.07 0.05 0.05 0.02 0.02 0.01 0.01 0.00 0.00 0.00 0.00
0.00 0.00 0.00 0.00 0.00 0.02 0.05 0.09 0.13 0.16 0.20 0.26 0.25 0.19 0.22 0.35 0.39 0.30 0.25 0.22 0.25 0.22 0.19 0.17 0.16 0.18 0.18 0.15 0.12 0.11 0.11 0.09 0.09 0.10 0.06 0.04 0.03 0.02 0.01 0.00 0.00 0.00 0.00
0.00 0.00 0.00 0.00 0.00 0.00 0.01 0.04 0.06 0.14 0.22 0.30 0.31 0.27 0.35 0.39 0.38 0.37 0.41 0.39 0.39 0.43 0.46 0.45 0.37 0.29 0.26 0.22 0.21 0.26 0.24 0.19 0.14 0.12 0.07 0.03 0.02 0.02 0.01 0.00 0.00 0.00 0.00
0.00 0.00 0.00 0.00 0.00 0.00 0.00 0.01 0.02 0.03 0.06 0.18 0.31 0.31 0.31 0.31 0.29 0.40 0.49 0.53 0.53 0.59 0.60 0.59 0.50 0.42 0.41 0.46 0.44 0.43 0.29 0.23 0.19 0.16 0.15 0.11 0.04 0.02 0.01 0.00 0.00 0.00 0.00
0.00 0.00 0.00 0.00 0.00 0.00 0.00 0.00 0.01 0.02 0.04 0.05 0.08 0.15 0.21 0.25 0.31 0.44 0.44 0.51 0.60 0.63 0.51 0.42 0.38 0.33 0.33 0.38 0.47 0.55 0.47 0.42 0.28 0.19 0.15 0.10 0.07 0.03 0.01 0.01 0.00 0.00 0.00
0.00 0.00 0.00 0.00 0.00 0.00 0.00 0.01 0.02 0.02 0.04 0.06 0.08 0.08 0.12 0.12 0.21 0.33 0.40 0.41 0.45 0.62 0.58 0.43 0.34 0.32 0.36 0.51 0.60 0.53 0.44 0.44 0.39 0.29 0.25 0.18 0.11 0.06 0.03 0.01 0.01 0.00 0.00
0.00 0.00 0.00 0.00 0.00 0.00 0.01 0.01 0.02 0.02 0.04 0.05 0.06 0.08 0.10 0.12 0.18 0.21 0.34 0.38 0.39 0.45 0.49 0.35 0.28 0.27 0.37 0.57 0.69 0.67 0.59 0.64 0.52 0.34 0.20 0.16 0.14 0.10 0.07 0.04 0.02 0.00 0.00
0.00 0.00 0.00 0.00 0.00 0.01 0.01 0.03 0.02 0.03 0.04 0.05 0.07 0.09 0.10 0.10 0.18 0.22 0.26 0.31 0.32 0.39 0.52 0.44 0.23 0.22 0.37 0.59 0.74 0.64 0.59 0.72 0.77 0.58 0.37 0.24 0.14 0.07 0.06 0.05 0.04 0.01 0.00
0.00 0.00 0.00 0.01 0.01 0.01 0.01 0.01 0.01 0.01 0.02 0.04 0.06 0.09 0.12 0.14 0.17 0.24 0.33 0.39 0.37 0.34 0.37 0.42 0.28 0.21 0.33 0.50 0.59 0.51 0.55 0.54 0.57 0.58 0.44 0.34 0.24 0.13 0.06 0.04 0.05 0.03 0.00
0.00 0.00 0.00 0.00 0.00 0.00 0.01 0.01 0.01 0.02 0.02 0.02 0.05 0.09 0.09 0.12 0.16 0.23 0.30 0.34 0.46 0.58 0.60 0.48 0.29 0.31 0.44 0.52 0.67 0.69 0.59 0.54 0.54 0.58 0.48 0.35 0.25 0.18 0.11 0.05 0.04 0.04 0.01
0.00 0.00 0.00 0.00 0.01 0.01 0.01 0.01 0.02 0.08 0.13 0.13 0.12 0.10 0.10 0.17 0.16 0.16 0.25 0.40 0.34 0.45 0.67 0.76 0.55 0.46 0.52 0.70 0.62 0.65 0.74 0.65 0.63 0.58 0.51 0.37 0.27 0.21 0.14 0.10 0.07 0.05 0.02
0.00 0.00 0.01 0.01 0.01 0.02 0.04 0.05 0.10 0.12 0.14 0.21 0.31 0.35 0.37 0.38 0.38 0.33 0.34 0.35 0.43 0.54 0.52 0.63 0.82 0.77 0.65 0.76 0.79 0.60 0.39 0.55 0.64 0.51 0.47 0.37 0.26 0.21 0.14 0.09 0.06 0.05 0.04
0.00 0.00 0.01 0.03 0.04 0.03 0.10 0.08 0.13 0.18 0.19 0.21 0.23 0.24 0.42 0.68 0.60 0.57 0.53 0.48 0.45 0.55 0.55 0.50 0.55 0.59 0.59 0.44 0.39 0.37 0.43 0.52 0.70 0.61 0.39 0.42 0.21 0.16 0.11 0.06 0.03 0.03 0.02
0.00 0.01 0.03 0.04 0.03 0.03 0.09 0.06 0.08 0.10 0.11 0.16 0.26 0.29 0.38 0.48 0.58 0.65 0.80 0.69 0.53 0.54 0.50 0.53 0.44 0.31 0.37 0.46 0.43 0.45 0.31 0.19 0.15 0.29 0.25 0.40 0.27 0.21 0.12 0.07 0.05 0.04 0.03
0.01 0.02 0.03 0.02 0.02 0.03 0.06 0.06 0.09 0.09 0.11 0.24 0.30 0.23 0.28 0.38 0.44 0.56 0.66 0.84 0.76 0.56 0.58 0.58 0.50 0.45 0.37 0.37 0.31 0.26 0.29 0.41 0.43 0.41 0.28 0.38 0.32 0.23 0.12 0.07 0.05 0.03 0.03
0.01 0.02 0.02 0.02 0.02 0.03 0.06 0.07 0.10 0.15 0.16 0.22 0.24 0.21 0.30 0.33 0.38 0.40 0.48 0.66 0.74 0.77 0.71 0.63 0.61 0.62 0.60 0.55 0.60 0.76 0.97 0.73 0.61 0.61 0.38 0.27 0.27 0.17 0.13 0.10 0.06 0.03 0.02
0.04 0.03 0.01 0.01 0.04 0.05 0.07 0.09 0.12 0.14 0.17 0.18 0.22 0.27 0.40 0.37 0.34 0.35 0.39 0.42 0.47 0.62 0.67 0.76 0.71 0.73 0.74 0.65 0.50 0.29 0.28 0.26 0.29 0.40 0.31 0.17 0.17 0.11 0.16 0.13 0.06 0.04 0.02

GFSMA_prec_precacc12_216.txt.gz
Total_Precipitation_Accumulation
0.09 0.18 0.19 0.20 0.09 0.04 0.01 0.01 0.00 0.01 0.00 0.00 0.00 0.00 0.00 0.00 0.00 0.00 0.00 0.00 0.00 0.00 0.00 0.00 0.00 0.01 0.01 0.01 0.01 0.01 0.01 0.00 0.00 0.00 0.00 0.00 0.00 0.00 0.00 0.00 0.00 0.00 0.00
0.08 0.10 0.15 0.16 0.17 0.14 0.09 0.05 0.02 0.01 0.00 0.00 0.00 0.00 0.00 0.00 0.00 0.00 0.00 0.00 0.00 0.00 0.00 0.00 0.00 0.00 0.01 0.01 0.01 0.00 0.00 0.00 0.00 0.01 0.00 0.00 0.00 0.00 0.00 0.00 0.00 0.00 0.00
0.05 0.05 0.05 0.08 0.08 0.11 0.10 0.07 0.03 0.02 0.02 0.02 0.02 0.01 0.01 0.00 0.00 0.00 0.00 0.00 0.00 0.00 0.00 0.00 0.00 0.01 0.01 0.01 0.01 0.00 0.00 0.00 0.01 0.01 0.01 0.01 0.01 0.00 0.00 0.00 0.00 0.00 0.00
0.03 0.05 0.05 0.07 0.10 0.10 0.09 0.06 0.03 0.02 0.01 0.00 0.00 0.00 0.00 0.00 0.00 0.00 0.00 0.00 0.00 0.00 0.00 0.00 0.00 0.01 0.01 0.01 0.01 0.01 0.01 0.01 0.01 0.01 0.01 0.01 0.01 0.01 0.00 0.00 0.01 0.01 0.00
0.02 0.05 0.05 0.08 0.10 0.08 0.04 0.01 0.01 0.02 0.01 0.01 0.00 0.00 0.00 0.00 0.00 0.00 0.00 0.00 0.00 0.00 0.00 0.00 0.00 0.00 0.01 0.01 0.00 0.01 0.01 0.02 0.01 0.01 0.01 0.01 0.01 0.01 0.01 0.01 0.01 0.01 0.01
0.05 0.06 0.07 0.08 0.10 0.04 0.03 0.02 0.01 0.01 0.01 0.01 0.01 0.01 0.01 0.01 0.00 0.00 0.00 0.00 0.00 0.00 0.00 0.00 0.00 0.00 0.00 0.00 0.00 0.01 0.02 0.02 0.02 0.02 0.02 0.02 0.02 0.02 0.01 0.01 0.01 0.01 0.01
0.04 0.07 0.07 0.06 0.05 0.02 0.01 0.01 0.01 0.01 0.01 0.01 0.03 0.03 0.03 0.02 0.01 0.01 0.00 0.00 0.00 0.00 0.00 0.00 0.00 0.00 0.01 0.01 0.01 0.03 0.04 0.05 0.05 0.04 0.03 0.03 0.03 0.02 0.02 0.01 0.02 0.01 0.01
0.00 0.01 0.00 0.00 0.00 0.00 0.00 0.00 0.00 0.01 0.02 0.01 0.02 0.05 0.05 0.03 0.02 0.01 0.02 0.02 0.02 0.02 0.03 0.02 0.02 0.02 0.02 0.02 0.03 0.04 0.06 0.06 0.06 0.07 0.05 0.04 0.03 0.03 0.03 0.02 0.02 0.02 0.01
0.00 0.00 0.00 0.00 0.00 0.00 0.00 0.00 0.00 0.00 0.00 0.00 0.01 0.03 0.05 0.04 0.02 0.02 0.04 0.09 0.11 0.13 0.11 0.11 0.12 0.12 0.11 0.10 0.14 0.13 0.11 0.13 0.15 0.18 0.14 0.08 0.06 0.05 0.03 0.02 0.02 0.02 0.02
0.00 0.00 0.00 0.00 0.00 0.00 0.00 0.00 0.00 0.00 0.00 0.00 0.00 0.01 0.02 0.04 0.04 0.03 0.02 0.04 0.10 0.12 0.11 0.10 0.11 0.12 0.13 0.14 0.17 0.28 0.32 0.29 0.31 0.31 0.29 0.23 0.13 0.08 0.06 0.04 0.02 0.02 0.02
0.00 0.00 0.00 0.00 0.00 0.00 0.00 0.00 0.00 0.00 0.00 0.00 0.00 0.00 0.01 0.04 0.05 0.05 0.04 0.03 0.07 0.11 0.12 0.13 0.16 0.18 0.19 0.21 0.24 0.27 0.39 0.35 0.38 0.49 0.52 0.37 0.26 0.17 0.13 0.11 0.07 0.04 0.02
0.00 0.00 0.00 0.00 0.00 0.00 0.00 0.00 0.00 0.00 0.00 0.00 0.01 0.01 0.01 0.02 0.02 0.03 0.04 0.02 0.03 0.04 0.11 0.19 0.24 0.23 0.28 0.28 0.32 0.46 0.47 0.38 0.38 0.48 0.64 0.77 0.58 0.36 0.23 0.14 0.10 0.07 0.04
0.00 0.00 0.00 0.00 0.00 0.00 0.00 0.00 0.00 0.00 0.00 0.01 0.01 0.01 0.02 0.02 0.04 0.06 0.10 0.09 0.08 0.07 0.10 0.16 0.22 0.26 0.36 0.47 0.51 0.55 0.47 0.40 0.41 0.49 0.61 0.70 0.77 0.73 0.54 0.30 0.14 0.08 0.06
0.00 0.00 0.00 0.00 0.00 0.00 0.00 0.00 0.00 0.01 0.01 0.02 0.02 0.03 0.05 0.04 0.06 0.09 0.12 0.18 0.18 0.14 0.13 0.10 0.12 0.19 0.23 0.36 0.52 0.61 0.59 0.60 0.56 0.59 0.63 0.60 0.59 0.71 0.67 0.38 0.25 0.16 0.12
0.00 0.00 0.00 0.00 0.00 0.00 0.00 0.01 0.01 0.01 0.02 0.02 0.04 0.04 0.05 0.04 0.06 0.09 0.12 0.14 0.22 0.25 0.20 0.14 0.14 0.16 0.22 0.42 0.59 0.57 0.49 0.54 0.56 0.57 0.65 0.69 0.68 0.63 0.50 0.34 0.24 0.18 0.13
0.00 0.00 0.00 0.00 0.00 0.00 0.01 0.01 0.01 0.01 0.02 0.01 0.02 0.02 0.03 0.03 0.04 0.06 0.10 0.11 0.16 0.21 0.18 0.10 0.10 0.13 0.21 0.39 0.57 0.61 0.59 0.68 0.60 0.52 0.54 0.65 0.70 0.67 0.69 0.49 0.25 0.20 0.19
0.00 0.00 0.00 0.00 0.00 0.01 0.01 0.02 0.02 0.02 0.02 0.02 0.02 0.03 0.03 0.03 0.04 0.05 0.08 0.10 0.12 0.15 0.16 0.10 0.07 0.06 0.15 0.34 0.53 0.52 0.54 0.72 0.90 0.89 0.71 0.59 0.66 0.78 0.65 0.51 0.31 0.20 0.20
0.00 0.00 0.00 0.00 0.00 0.00 0.00 0.01 0.01 0.01 0.02 0.02 0.02 0.03 0.03 0.03 0.04 0.05 0.08 0.11 0.12 0.11 0.14 0.14 0.06 0.05 0.07 0.12 0.30 0.38 0.49 0.54 0.63 0.82 0.95 0.98 0.81 0.76 0.78 0.57 0.40 0.29 0.23
0.00 0.00 0.00 0.00 0.00 0.00 0.01 0.01 0.01 0.01 0.01 0.01 0.01 0.02 0.01 0.02 0.03 0.04 0.07 0.15 0.25 0.32 0.32 0.33 0.21 0.10 0.08 0.14 0.31 0.42 0.51 0.53 0.58 0.70 0.72 0.76 0.82 0.81 0.71 0.53 0.41 0.29 0.23
0.00 0.00 0.00 0.00 0.01 0.01 0.01 0.00 0.01 0.01 0.01 0.01 0.01 0.01 0.01 0.02 0.02 0.03 0.05 0.08 0.13 0.25 0.42 0.53 0.35 0.21 0.16 0.17 0.24 0.45 0.64 0.62 0.68 0.74 0.77 0.76 0.75 0.66 0.67 0.57 0.40 0.30 0.23
0.00 0.00 0.00 0.00 0.00 0.00 0.01 0.01 0.01 0.01 0.00 0.01 0.00 0.01 0.03 0.09 0.09 0.10 0.13 0.13 0.14 0.26 0.31 0.37 0.44 0.35 0.21 0.19 0.25 0.30 0.36 0.56 0.76 0.69 0.79 0.89 0.83 0.89 0.73 0.56 0.41 0.31 0.24
0.00 0.00 0.00 0.00 0.00 0.00 0.02 0.01 0.01 0.01 0.01 0.01 0.03 0.02 0.04 0.12 0.10 0.15 0.15 0.15 0.22 0.30 0.28 0.27 0.25 0.24 0.15 0.06 0.11 0.23 0.36 0.46 0.76 0.87 0.62 0.92 0.69 0.67 0.64 0.50 0.36 0.22 0.14
0.00 0.00 0.00 0.00 0.00 0.01 0.02 0.01 0.01 0.01 0.01 0.02 0.03 0.03 0.02 0.05 0.11 0.15 0.30 0.22 0.16 0.29 0.29 0.22 0.17 0.08 0.06 0.07 0.13 0.19 0.14 0.16 0.16 0.36 0.34 0.79 0.73 0.66 0.49 0.34 0.29 0.23 0.16
0.00 0.00 0.01 0.00 0.01 0.01 0.01 0.01 0.00 0.01 0.00 0.01 0.02 0.03 0.04 0.06 0.08 0.12 0.13 0.20 0.21 0.18 0.24 0.22 0.19 0.17 0.20 0.21 0.19 0.17 0.21 0.47 0.58 0.60 0.44 0.79 0.84 0.75 0.62 0.50 0.40 0.29 0.18
0.01 0.00 0.01 0.00 0.01 0.00 0.01 0.01 0.00 0.00 0.00 0.00 0.02 0.04 0.06 0.06 0.08 0.07 0.09 0.12 0.22 0.34 0.40 0.32 0.35 0.47 0.42 0.42 0.54 0.77 1.05 0.87 0.81 0.93 0.74 0.62 0.71 0.70 0.71 0.73 0.58 0.36 0.20
0.01 0.00 0.00 0.00 0.00 0.00 0.01 0.01 0.01 0.00 0.01 0.01 0.02 0.05 0.10 0.11 0.08 0.04 0.06 0.09 0.10 0.25 0.33 0.42 0.43 0.47 0.45 0.49 0.48 0.27 0.29 0.28 0.43 0.76 0.69 0.46 0.53 0.46 0.74 0.71 0.47 0.33 0.22

GFSMA_prec_precacc12_222.txt.gz
Total_Precipitation_Accumulation
0.09 0.16 0.17 0.18 0.07 0.03 0.00 0.00 0.00 0.01 0.00 0.00 0.00 0.00 0.00 0.00 0.00 0.00 0.00 0.00 0.00 0.00 0.00 0.00 0.00 0.00 0.00 0.00 0.00 0.00 0.00 0.00 0.00 0.00 0.00 0.00 0.01 0.02 0.02 0.02 0.02 0.02 0.01
0.08 0.10 0.13 0.14 0.15 0.13 0.08 0.05 0.03 0.02 0.01 0.00 0.00 0.00 0.00 0.00 0.00 0.00 0.00 0.00 0.00 0.00 0.00 0.00 0.00 0.00 0.01 0.01 0.00 0.00 0.00 0.00 0.00 0.00 0.00 0.00 0.01 0.01 0.02 0.02 0.02 0.02 0.02
0.04 0.03 0.04 0.07 0.09 0.11 0.09 0.06 0.03 0.03 0.02 0.02 0.02 0.01 0.01 0.00 0.00 0.00 0.00 0.00 0.00 0.00 0.00 0.00 0.00 0.01 0.01 0.00 0.01 0.01 0.01 0.00 0.00 0.01 0.01 0.01 0.01 0.01 0.01 0.02 0.02 0.02 0.02
0.02 0.04 0.05 0.06 0.10 0.10 0.09 0.07 0.04 0.02 0.01 0.00 0.00 0.00 0.00 0.00 0.00 0.00 0.00 0.00 0.00 0.00 0.00 0.00 0.00 0.01 0.01 0.01 0.02 0.05 0.06 0.06 0.04 0.03 0.02 0.01 0.01 0.00 0.01 0.01 0.02 0.02 0.02
0.02 0.04 0.04 0.07 0.09 0.09 0.05 0.01 0.01 0.01 0.01 0.00 0.00 0.00 0.00 0.00 0.00 0.00 0.00 0.00 0.00 0.00 0.00 0.00 0.00 0.00 0.00 0.01 0.03 0.07 0.09 0.10 0.09 0.09 0.08 0.04 0.02 0.01 0.01 0.01 0.02 0.02 0.02
0.03 0.03 0.04 0.06 0.09 0.05 0.03 0.01 0.01 0.01 0.00 0.00 0.00 0.00 0.00 0.00 0.00 0.00 0.00 0.00 0.00 0.00 0.00 0.00 0.00 0.00 0.00 0.00 0.01 0.05 0.07 0.11 0.12 0.11 0.11 0.09 0.08 0.04 0.01 0.02 0.02 0.02 0.02
0.04 0.05 0.05 0.06 0.05 0.02 0.01 0.01 0.00 0.00 0.00 0.00 0.00 0.00 0.00 0.00 0.00 0.00 0.00 0.00 0.00 0.00 0.00 0.00 0.00 0.00 0.00 0.00 0.01 0.05 0.06 0.09 0.13 0.15 0.15 0.14 0.13 0.13 0.09 0.04 0.02 0.02 0.02
0.02 0.02 0.01 0.00 0.00 0.00 0.00 0.00 0.00 0.00 0.00 0.00 0.00 0.00 0.00 0.00 0.00 0.00 0.00 0.00 0.00 0.00 0.00 0.00 0.00 0.00 0.00 0.01 0.02 0.04 0.08 0.09 0.12 0.17 0.19 0.18 0.18 0.23 0.30 0.30 0.20 0.09 0.04
0.01 0.01 0.00 0.00 0.00 0.00 0.00 0.00 0.00 0.00 0.00 0.00 0.00 0.00 0.00 0.00 0.00 0.00 0.00 0.00 0.00 0.00 0.00 0.00 0.00 0.00 0.01 0.03 0.09 0.08 0.08 0.14 0.21 0.26 0.29 0.34 0.35 0.46 0.58 0.55 0.50 0.39 0.17
0.00 0.00 0.01 0.00 0.00 0.00 0.00 0.00 0.00 0.00 0.00 0.00 0.00 0.00 0.00 0.00 0.00 0.00 0.00 0.00 0.00 0.00 0.00 0.00 0.00 0.01 0.01 0.03 0.07 0.16 0.23 0.25 0.29 0.36 0.43 0.49 0.54 0.64 0.70 0.62 0.64 0.66 0.50
0.00 0.00 0.00 0.00 0.00 0.00 0.00 0.00 0.00 0.00 0.00 0.00 0.00 0.00 0.00 0.00 0.00 0.00 0.00 0.00 0.00 0.00 0.00 0.00 0.00 0.01 0.02 0.07 0.13 0.17 0.29 0.28 0.30 0.41 0.57 0.71 0.80 0.77 0.74 0.74 0.69 0.64 0.60
0.00 0.00 0.00 0.00 0.00 0.00 0.00 0.00 0.00 0.00 0.00 0.00 0.00 0.00 0.00 0.00 0.00 0.00 0.01 0.00 0.00 0.00 0.00 0.01 0.02 0.02 0.04 0.07 0.12 0.21 0.25 0.21 0.24 0.36 0.57 0.83 1.02 1.13 1.16 1.06 1.02 1.08 1.00
0.00 0.00 0.00 0.00 0.00 0.00 0.00 0.00 0.00 0.00 0.00 0.00 0.00 0.00 0.00 0.00 0.00 0.01 0.01 0.01 0.01 0.00 0.01 0.02 0.03 0.04 0.06 0.08 0.09 0.14 0.19 0.18 0.22 0.33 0.46 0.61 0.81 0.94 1.01 1.03 1.06 0.98 0.98
0.00 0.00 0.00 0.00 0.00 0.00 0.00 0.00 0.00 0.00 0.00 0.00 0.00 0.00 0.01 0.01 0.01 0.02 0.05 0.07 0.05 0.01 0.00 0.01 0.03 0.06 0.06 0.09 0.08 0.07 0.13 0.19 0.29 0.40 0.48 0.51 0.53 0.79 0.97 1.02 0.98 0.92 0.97
0.00 0.00 0.00 0.00 0.00 0.00 0.00 0.00 0.00 0.00 0.00 0.00 0.00 0.01 0.01 0.01 0.02 0.02 0.03 0.05 0.08 0.04 0.01 0.01 0.04 0.06 0.06 0.07 0.07 0.06 0.07 0.11 0.18 0.29 0.41 0.53 0.58 0.60 0.59 0.69 0.82 0.81 0.77
0.00 0.00 0.00 0.00 0.00 0.00 0.00 0.00 0.00 0.00 0.00 0.00 0.01 0.01 0.01 0.01 0.01 0.01 0.02 0.02 0.05 0.06 0.03 0.01 0.02 0.04 0.05 0.05 0.04 0.02 0.02 0.07 0.10 0.20 0.35 0.50 0.57 0.59 0.73 0.71 0.58 0.59 0.71
0.00 0.00 0.00 0.00 0.00 0.00 0.00 0.00 0.00 0.00 0.00 0.00 0.01 0.01 0.01 0.01 0.01 0.01 0.01 0.02 0.03 0.04 0.04 0.02 0.03 0.02 0.03 0.03 0.03 0.02 0.01 0.04 0.15 0.33 0.36 0.36 0.53 0.72 0.63 0.66 0.78 0.73 0.55
0.00 0.00 0.00 0.00 0.00 0.00 0.00 0.00 0.00 0.00 0.00 0.00 0.00 0.00 0.00 0.01 0.01 0.01 0.01 0.01 0.02 0.02 0.03 0.03 0.02 0.02 0.02 0.01 0.03 0.04 0.03 0.02 0.08 0.26 0.52 0.65 0.58 0.65 0.77 0.70 0.70 0.64 0.63
0.00 0.00 0.00 0.00 0.00 0.00 0.00 0.00 0.00 0.00 0.00 0.00 0.00 0.00 0.00 0.01 0.01 0.01 0.01 0.02 0.02 0.02 0.05 0.10 0.09 0.06 0.06 0.05 0.06 0.08 0.08 0.05 0.08 0.15 0.25 0.42 0.57 0.64 0.64 0.65 0.63 0.69 0.53
0.00 0.00 0.00 0.00 0.00 0.00 0.00 0.00 0.00 0.00 0.00 0.00 0.00 0.00 0.00 0.00 0.00 0.00 0.01 0.01 0.01 0.02 0.03 0.05 0.07 0.10 0.14 0.09 0.06 0.08 0.13 0.11 0.10 0.19 0.29 0.40 0.48 0.46 0.56 0.55 0.52 0.53 0.60
0.00 0.00 0.00 0.00 0.00 0.00 0.00 0.00 0.00 0.00 0.00 0.00 0.00 0.00 0.00 0.01 0.01 0.01 0.02 0.02 0.02 0.06 0.05 0.05 0.04 0.10 0.14 0.07 0.06 0.09 0.15 0.15 0.23 0.26 0.39 0.57 0.60 0.69 0.66 0.57 0.58 0.48 0.56
0.00 0.00 0.00 0.00 0.00 0.00 0.00 0.00 0.00 0.00 0.00 0.00 0.00 0.00 0.00 0.01 0.02 0.03 0.04 0.06 0.06 0.08 0.08 0.06 0.07 0.11 0.07 0.03 0.05 0.11 0.16 0.16 0.27 0.42 0.35 0.60 0.55 0.58 0.62 0.62 0.62 0.52 0.48
0.00 0.00 0.00 0.00 0.00 0.00 0.00 0.00 0.00 0.00 0.00 0.00 0.00 0.00 0.00 0.01 0.02 0.01 0.06 0.03 0.03 0.06 0.11 0.11 0.12 0.07 0.05 0.04 0.13 0.10 0.06 0.10 0.11 0.21 0.24 0.55 0.58 0.60 0.60 0.56 0.56 0.54 0.52
0.00 0.00 0.00 0.00 0.00 0.00 0.00 0.00 0.00 0.00 0.00 0.00 0.00 0.00 0.00 0.00 0.00 0.01 0.00 0.01 0.01 0.02 0.07 0.10 0.11 0.07 0.12 0.14 0.11 0.08 0.09 0.23 0.29 0.41 0.32 0.55 0.72 0.73 0.78 0.85 0.74 0.72 0.62
0.00 0.00 0.00 0.00 0.00 0.00 0.01 0.00 0.00 0.00 0.00 0.00 0.00 0.00 0.00 0.00 0.01 0.01 0.00 0.01 0.01 0.02 0.15 0.16 0.16 0.25 0.21 0.13 0.16 0.25 0.34 0.28 0.35 0.50 0.47 0.45 0.61 0.78 0.93 1.19 1.21 0.91 0.78
0.00 0.00 0.00 0.00 0.00 0.00 0.00 0.00 0.00 0.00 0.00 0.00 0.00 0.00 0.01 0.01 0.01 0.00 0.00 0.01 0.01 0.04 0.07 0.12 0.11 0.10 0.05 0.07 0.14 0.05 0.06 0.06 0.18 0.42 0.43 0.39 0.48 0.43 0.87 1.09 1.12 1.01 0.82